DW5621 Weather Reports


time (UTC)temp
C
wind
direction
speed
KPH
gust
KPH
rain 1hr
cm
rain 24hr
cm
rain mn
cm
humidity
%
barometer
mb
20260507051858 8 85 0.0 6.4 0.00 0.00 0.00 79 1015.4
20260507050938 8 0 0.0 0.0 0.00 0.00 0.00 79 1015.3
20260507050038 8 0 0.0 0.0 0.00 0.00 0.00 79 1015.3
20260507045437 8 0 0.0 0.0 0.00 0.00 0.00 79 1015.2
20260507044538 8 0 0.0 0.0 0.00 0.00 0.00 80 1015.2
20260507043637 8 0 0.0 0.0 0.00 0.00 0.00 80 1015.1
20260507042737 8 0 0.0 0.0 0.00 0.00 0.00 80 1015.2
20260507041837 8 0 0.0 3.2 0.00 0.00 0.00 80 1015.2
20260507040937 8 80 0.0 3.2 0.00 0.00 0.00 80 1015.2
20260507040038 8 79 0.0 6.4 0.00 0.00 0.00 80 1015.1
20260507035438 8 76 0.0 6.4 0.00 0.00 0.00 80 1015.1
20260507034538 9 76 0.0 3.2 0.00 0.00 0.00 80 1015.0
20260507033637 9 76 0.0 6.4 0.00 0.00 0.00 80 1015.1
20260507032759 9 76 0.0 6.4 0.00 0.00 0.00 80 1015.0
20260507031837 9 77 1.6 9.7 0.00 0.00 0.00 80 1015.1
20260507030938 8 96 1.6 9.7 0.00 0.00 0.00 81 1015.0
20260507030058 8 83 1.6 9.7 0.00 0.00 0.00 82 1015.0
20260507025437 8 72 0.0 6.4 0.00 0.00 0.00 83 1015.0
20260507024537 8 44 0.0 6.4 0.00 0.00 0.00 84 1015.0
20260507023659 8 56 1.6 6.4 0.00 0.00 0.00 84 1015.0
20260507022738 8 34 1.6 6.4 0.00 0.00 0.00 84 1015.0
20260507021837 8 22 0.0 6.4 0.00 0.00 0.00 84 1015.0
20260507020958 8 359 0.0 3.2 0.00 0.00 0.00 84 1014.9
20260507020037 8 355 1.6 6.4 0.00 0.00 0.00 84 1014.9
20260507015437 8 356 1.6 6.4 0.00 0.00 0.00 83 1014.9
20260507014537 8 15 1.6 6.4 0.00 0.00 0.00 83 1014.8
20260507013637 9 23 0.0 1.6 0.00 0.00 0.00 82 1014.8
20260507012737 9 23 0.0 3.2 0.00 0.00 0.00 82 1014.9
20260507011837 9 20 0.0 3.2 0.00 0.00 0.00 82 1014.9
20260507010937 9 14 0.0 3.2 0.00 0.00 0.00 82 1015.5
20260507010037 9 14 0.0 3.2 0.00 0.00 0.00 82 1014.9
20260507005437 9 13 0.0 3.2 0.00 0.00 0.00 82 1014.8
20260507004537 9 333 0.0 6.4 0.00 0.00 0.00 83 1014.9
20260507003658 9 333 1.6 6.4 0.00 0.00 0.00 83 1015.0
20260507002737 9 354 1.6 6.4 0.00 0.00 0.00 82 1015.0
20260507001858 9 47 1.6 6.4 0.00 0.00 0.00 82 1014.9
20260507000937 9 61 0.0 3.2 0.00 0.00 0.00 82 1014.9
20260507000037 9 61 0.0 3.2 0.00 0.00 0.00 81 1014.9
20260506235437 9 61 0.0 3.2 0.00 0.00 0.00 81 1014.9
20260506234537 9 61 0.0 3.2 0.00 0.00 0.00 81 1014.8
20260506233637 9 61 0.0 3.2 0.00 0.00 0.00 80 1014.8
20260506232737 9 61 0.0 3.2 0.00 0.00 0.00 80 1014.8
20260506231837 9 63 0.0 6.4 0.00 0.00 0.00 80 1014.8
20260506230937 9 33 1.6 6.4 0.00 0.00 0.00 80 1014.8
20260506230038 9 9 1.6 6.4 0.00 0.00 0.00 80 1014.8
20260506225437 10 24 1.6 8.0 0.00 0.00 0.00 80 1014.6
20260506224537 10 39 1.6 8.0 0.00 0.00 0.00 79 1014.7
20260506223637 10 12 1.6 8.0 0.00 0.00 0.00 79 1014.8
20260506222737 10 349 1.6 8.0 0.00 0.00 0.00 78 1014.7
20260506221837 10 353 1.6 9.7 0.00 0.00 0.00 78 1014.6
20260506220958 10 345 3.2 9.7 0.00 0.00 0.00 77 1014.7
20260506220037 10 24 1.6 9.7 0.00 0.00 0.00 77 1014.5
20260506215458 10 11 3.2 9.7 0.00 0.00 0.00 77 1014.6
20260506214537 10 14 3.2 9.7 0.00 0.00 0.00 76 1014.5
20260506213637 10 25 3.2 9.7 0.00 0.00 0.00 76 1014.5
20260506212737 10 1 4.8 11.3 0.00 0.00 0.00 75 1014.5
20260506211837 10 344 4.8 16.1 0.00 0.00 0.00 74 1014.5
20260506210937 10 349 4.8 16.1 0.00 0.00 0.00 73 1014.5
20260506210058 10 359 3.2 19.3 0.00 0.00 0.00 72 1014.3
20260506205437 10 1 4.8 19.3 0.00 0.00 0.00 72 1014.3
20260506204537 11 347 4.8 19.3 0.00 0.00 0.00 71 1014.3
20260506203637 11 338 4.8 16.1 0.00 0.00 0.00 70 1014.2
20260506202737 11 3 3.2 9.7 0.00 0.00 0.00 68 1014.3
20260506201837 11 353 3.2 11.3 0.00 0.00 0.00 67 1014.2
20260506200937 11 1 4.8 16.1 0.00 0.00 0.00 67 1014.1
20260506200037 11 350 6.4 17.7 0.00 0.00 0.00 66 1014.0
20260506195437 11 356 4.8 17.7 0.00 0.00 0.00 66 1014.0
20260506194537 11 354 4.8 16.1 0.00 0.00 0.00 65 1013.9
20260506193637 11 347 4.8 19.3 0.00 0.00 0.00 65 1013.8
20260506192737 11 357 4.8 16.1 0.00 0.00 0.00 64 1013.6
20260506191837 11 360 3.2 16.1 0.00 0.00 0.00 63 1013.6
20260506190937 11 350 4.8 16.1 0.00 0.00 0.00 63 1013.5
20260506190037 12 357 4.8 16.1 0.00 0.00 0.00 62 1013.4
20260506185437 12 3 4.8 17.7 0.00 0.00 0.00 62 1013.4
20260506184537 12 5 3.2 17.7 0.00 0.00 0.00 61 1013.4
20260506183658 12 358 4.8 16.1 0.00 0.00 0.00 61 1013.4
20260506182758 12 9 3.2 12.9 0.00 0.00 0.00 61 1013.2
20260506181837 12 14 4.8 16.1 0.00 0.00 0.00 60 1013.1
20260506180937 12 8 4.8 16.1 0.00 0.00 0.00 61 1012.9
20260506180037 12 28 3.2 12.9 0.00 0.00 0.00 61 1013.0
20260506175437 12 40 3.2 12.9 0.00 0.00 0.00 60 1012.8
20260506174537 12 54 3.2 9.7 0.00 0.00 0.00 60 1012.7
20260506173637 12 79 3.2 12.9 0.00 0.00 0.00 61 1012.7
20260506172737 12 76 1.6 8.0 0.00 0.00 0.00 61 1012.6
20260506171837 12 105 1.6 9.7 0.00 0.00 0.00 62 1012.7
20260506170937 12 76 4.8 16.1 0.00 0.00 0.00 61 1012.6
20260506170037 12 77 3.2 11.3 0.00 0.00 0.00 61 1012.5
20260506165437 12 90 1.6 11.3 0.00 0.00 0.00 60 1012.5
20260506164537 12 57 3.2 11.3 0.00 0.00 0.00 60 1012.4
20260506163637 12 7 4.8 19.3 0.00 0.00 0.00 56 1012.5
20260506162737 12 343 4.8 19.3 0.00 0.00 0.00 57 1012.4
20260506161858 12 341 4.8 19.3 0.00 0.00 0.00 58 1012.5
20260506160937 12 335 4.8 17.7 0.00 0.00 0.00 58 1012.5
20260506160037 12 338 4.8 17.7 0.00 0.00 0.00 57 1012.5
20260506155437 12 339 4.8 17.7 0.00 0.00 0.00 58 1012.6
20260506154537 12 340 4.8 19.3 0.00 0.00 0.00 58 1012.6
20260506153637 12 6 4.8 16.1 0.00 0.00 0.00 58 1012.6
20260506152758 12 11 4.8 16.1 0.00 0.00 0.00 58 1012.5
20260506151858 12 359 6.4 19.3 0.00 0.00 0.00 59 1012.6
20260506150937 12 345 4.8 17.7 0.00 0.00 0.00 59 1012.6
20260506150037 13 348 6.4 20.9 0.00 0.00 0.00 58 1012.4
20260506145437 13 353 4.8 20.9 0.00 0.00 0.00 58 1012.5
20260506144558 13 344 4.8 17.7 0.00 0.00 0.00 59 1012.6
20260506143637 12 331 4.8 17.7 0.00 0.00 0.00 61 1012.5
20260506142737 12 352 4.8 16.1 0.00 0.00 0.00 62 1012.6
20260506141858 12 329 6.4 17.7 0.00 0.00 0.00 62 1012.7
20260506140958 12 331 6.4 20.9 0.00 0.00 0.00 64 1012.7
20260506140037 12 335 6.4 20.9 0.00 0.00 0.00 64 1012.7
20260506135437 12 331 6.4 20.9 0.00 0.00 0.00 65 1012.7
20260506134558 11 334 6.4 19.3 0.00 0.00 0.00 66 1012.7
20260506133637 11 349 4.8 17.7 0.00 0.00 0.00 68 1012.9
20260506132737 11 331 6.4 20.9 0.00 0.00 0.00 67 1012.9
20260506131837 12 355 8.0 19.3 0.00 0.00 0.00 64 1012.9
20260506130937 12 350 4.8 20.9 0.00 0.00 0.00 63 1012.8
20260506130037 12 340 4.8 25.7 0.00 0.00 0.00 63 1012.7
20260506125437 12 344 6.4 25.7 0.00 0.00 0.00 62 1012.8
20260506124537 12 349 8.0 19.3 0.00 0.00 0.00 61 1012.7
20260506123637 12 355 6.4 20.9 0.00 0.00 0.00 62 1012.8
20260506122737 12 9 6.4 19.3 0.00 0.00 0.00 60 1012.7
20260506121837 12 343 8.0 22.5 0.00 0.00 0.00 59 1012.7
20260506120937 12 349 6.4 22.5 0.00 0.00 0.00 60 1012.7
20260506120037 12 345 8.0 25.7 0.00 0.00 0.00 59 1012.7
20260506115437 13 339 8.0 25.7 0.00 0.00 0.00 60 1012.8
20260506114558 13 345 8.0 29.0 0.00 0.00 0.00 61 1012.8
20260506113657 12 347 8.0 29.0 0.00 0.00 0.00 61 1012.7
20260506112758 12 335 8.0 20.9 0.00 0.00 0.00 62 1012.7
20260506111836 12 8 8.0 25.7 0.00 0.00 0.00 63 1012.8
20260506110936 12 353 8.0 25.7 0.00 0.00 0.00 61 1012.8
20260506110037 12 344 8.0 27.4 0.00 0.00 0.00 61 1012.8
20260506105436 12 351 6.4 27.4 0.00 0.00 0.00 61 1012.7
20260506104537 12 341 6.4 20.9 0.00 0.00 0.00 59 1012.7
20260506103657 12 329 8.0 22.5 0.00 0.00 0.00 59 1012.9
20260506102736 12 342 8.0 22.5 0.00 0.00 0.00 60 1012.7
20260506101836 12 334 8.0 22.5 0.00 0.00 0.00 59 1012.6
20260506100958 12 330 6.4 20.9 0.00 0.00 0.00 61 1012.8
20260506100036 12 333 8.0 20.9 0.00 0.00 0.00 61 1012.8
20260506095457 11 353 6.4 19.3 0.00 0.00 0.00 62 1012.9
20260506094537 11 355 6.4 19.3 0.00 0.00 0.00 62 1013.1
20260506093657 11 340 6.4 20.9 0.00 0.00 0.00 63 1013.0
20260506092757 11 343 6.4 25.7 0.00 0.00 0.00 64 1013.0
20260506091857 10 333 8.0 27.4 0.00 0.00 0.00 64 1013.0
20260506090936 11 326 8.0 25.7 0.00 0.00 0.00 62 1012.9
20260506090037 12 348 8.0 25.7 0.00 0.00 0.00 61 1012.9
20260506085436 12 352 8.0 27.4 0.00 0.00 0.00 61 1012.8
20260506084536 11 342 8.0 27.4 0.00 0.00 0.00 62 1012.8
20260506083636 11 339 9.7 27.4 0.00 0.00 0.00 63 1012.8
20260506082736 11 355 6.4 22.5 0.00 0.00 0.00 65 1012.6
20260506081836 11 357 8.0 22.5 0.00 0.00 0.00 67 1012.7
20260506080936 10 4 8.0 22.5 0.00 0.00 0.00 68 1012.9
20260506072736 9 348 6.4 19.3 0.00 0.00 0.00 74 1012.7
20260506071836 9 332 6.4 19.3 0.00 0.00 0.00 75 1012.8
20260506070957 8 347 4.8 17.7 0.00 0.00 0.00 76 1012.7
20260506061836 8 351 8.0 20.9 0.00 0.00 0.00 78 1012.6
20260506060936 8 359 4.8 17.7 0.00 0.00 0.00 78 1012.5